Torax TimeFrame

Torax TimeFrame ⇒ XML

NameTime LeftWindow Opens
Animated Captain6d 19:522019-01-09 11:30:00
Old World Drake6d 19:452019-01-09 11:37:00
Skarthul the Avenged1d 13:002019-01-14 18:22:00
Jazzmin, Maiden of Vitality0d 17:442019-01-15 13:38:00
Sylvanna TorLai0d 17:392019-01-15 13:43:00
Ancient Magus Tarkin0d 17:302019-01-15 13:52:00
Sarcrina the Astral Priestess0d 15:002019-01-15 16:22:00
Ganja the Stone Golem0d 12:302019-01-15 18:52:00
Slashbrood, Devourer of the Blackness0d 11:562019-01-15 19:26:00
Pinosis0d 11:492019-01-15 19:33:00
Nessam0d 11:472019-01-15 19:35:00
Detox0d 10:532019-01-15 20:29:00
Raiyar, the Shadow Master0d 09:392019-01-15 21:43:00
Windstrike The Vile0d 06:252019-01-16 00:57:00
Dlanod, the Crazed Chancellor0d 05:352019-01-16 01:47:00
Anvilfist0d 04:492019-01-16 02:33:00
Bolkor, the Holy Master0d 04:462019-01-16 02:36:00
Shadow0d 02:482019-01-16 04:34:00
Hyrak, Bringer of Nightmares0d 02:172019-01-16 05:05:00
Threk, King of Lords0d 01:172019-01-16 06:05:00
Brutalitar, Lord of the Underworld0d 00:322019-01-16 06:50:00
Gorganus of the Wood0d 00:162019-01-16 07:06:00
Rancid, Lord of Thugs0d 00:132019-01-16 07:36:00
Bloodchill the Grizzly0d 00:252019-01-16 07:48:00
Emperor Neudeus, Controller of the Universe0d 00:582019-01-16 08:21:00
Archdevil Yirkon0d 01:462019-01-16 09:09:00
Ebliss, Fallen Angel of Despair0d 02:192019-01-16 09:42:00
Rotborn, Eater of the Dead0d 03:012019-01-16 10:24:00
Varsanor, Master of Darkness0d 03:142019-01-16 10:37:00
Synge, The Red Dragon0d 03:492019-01-16 11:12:00
Howldroid, Tormentor of the Pit0d 03:592019-01-16 11:22:00
Melt Bane, The Forbidden Demon Dragon0d 05:592019-01-16 13:22:00
Zertan, The Collector0d 06:552019-01-16 14:18:00
Garland, The Lord Keeper0d 06:572019-01-16 14:20:00
Wanhiroeaz the Devourer0d 07:152019-01-16 14:38:00
Lord Varan0d 08:152019-01-16 15:38:00
Freezebreed, The Frozen Manipulator0d 10:162019-01-16 17:39:00
Samatha Dark-Soul0d 10:212019-01-16 17:44:00
The Emerald Assassin0d 10:282019-01-16 17:51:00
Numerocure, The Black Messenger of Evil0d 11:532019-01-16 19:16:00
Straya, the Underworld Ruler0d 12:302019-01-16 19:53:00
Baron Mu, Dark Rider of the Undead0d 12:402019-01-16 20:03:00
Traxodon the Plaguebringer0d 15:352019-01-16 22:58:00
Jorun the Blazing Swordsman0d 16:322019-01-16 23:55:00
Skybrine The Inescapable0d 16:392019-01-17 00:02:00
Karvaz, Lord of Alsayic0d 17:382019-01-17 01:01:00
Crane0d 19:002019-01-17 02:23:00
Great Lord Ganeshan0d 19:202019-01-17 02:43:00
Volgan the Living Ironbark0d 21:522019-01-17 05:15:00
Lord Sibannac0d 23:152019-01-17 06:38:00
Ag Nabak the Abomination0d 23:322019-01-17 06:55:00
Lady Chaos, Queen of the Abyss0d 23:572019-01-17 07:20:00
Lord Xordam1d 00:082019-01-17 07:31:00
Tylos, The Lord Master1d 00:492019-01-17 08:12:00
Tsort1d 01:052019-01-17 08:28:00
Dreg nor, Keeper of the Infernal Essence1d 01:322019-01-17 08:55:00
Zikkir the Dark Archer1d 03:442019-01-17 11:07:00
Gnorb1d 05:492019-01-17 13:12:00
Smoot the Yeti1d 06:582019-01-17 14:21:00
Terrance, Rebel of Rallis1d 07:032019-01-17 14:26:00
Lady Ariella1d 08:012019-01-17 15:24:00
Q-SEC Commander1d 08:302019-01-17 15:53:00
Lord Narada1d 08:322019-01-17 15:55:00
Crantos, Defender of Ultimation1d 11:302019-01-17 18:53:00
Xynak, the Arcane Master1d 12:222019-01-17 19:45:00
Murderface1d 12:322019-01-17 19:55:00
Anguish1d 16:462019-01-18 00:09:00
King Ashnar, Lord of the Unliving1d 23:132019-01-18 06:36:00
Akkel the Enflamed Warrior1d 23:362019-01-18 06:59:00
Kretok, Descendant of Nature2d 00:352019-01-18 07:58:00
Quiver, The Renegade2d 03:172019-01-18 10:40:00
Nayark the Mummified Sorcerer2d 04:172019-01-18 11:40:00
Ormsul the Putrid2d 11:252019-01-18 18:48:00
Keeper of Nature2d 13:332019-01-18 20:56:00
Lacuste of the Swarm2d 17:542019-01-19 01:17:00
Hackerphage, Protector of the Gateway2d 20:332019-01-19 03:56:00
Lord Suka2d 21:582019-01-19 05:21:00
Amalgamated Apparition2d 22:242019-01-19 05:47:00
Sigil, Lich of Woe3d 00:092019-01-19 07:32:00
Balerion, Dragon of Dread3d 04:342019-01-19 11:57:00
Nar Zhul, Slayer of All3d 05:442019-01-19 13:07:00
Crolvak, the Fire Master3d 07:172019-01-19 14:40:00
Grivvek, Protector of the Brood3d 14:052019-01-19 21:28:00
Esquin, the Kinetic Master3d 21:342019-01-20 04:57:00
Viserion, the Necrodragon4d 01:052019-01-20 08:28:00
Felroc, Overseer of Hellfire4d 10:462019-01-20 18:09:00
Nafir, God of Desolation4d 20:252019-01-21 03:48:00
Kro Shuk, Doomslayer6d 03:022019-01-22 10:25:00
Shaik, Servant of Arkron193d 01:392018-07-07 05:43:00
Rook, Hand of Arkron191d 04:142018-07-09 03:08:00
Beast of Cards17d 19:382018-12-29 11:44:00
Noxious Slug13d 05:262019-01-03 01:56:00
Jade Dragonite6d 18:402019-01-09 12:42:00
Mistress of the Sword2d 04:282019-01-14 02:54:00
Vitkros, Hydra of the Deep0d 21:292019-01-15 09:53:00
95 Gods, Last update: 2019-01-16 12:05:03